Temperature
20 19 20 19 19 20 20 20 19 19 19 19 19 19 19 19 19 19 18 18 18 18 18 18 18 18 18 18 18 18 18 18 17 17 17 17 17 17 17 17 17 16 17
20 19 20 20 20 20 20 20 19 19 19 19 19 19 19 19 19 19 18 18 18 18 18 18 18 18 18 18 18 18 18 17 17 17 17 17 17 17 17 17 16 17 17
20 20 20 20 20 20 20 20 20 19 19 19 19 19 19 19 19 18 18 18 18 18 18 18 18 18 18 18 18 18 18 17 17 17 17 17 17 17 17 17 17 17 17
20 20 19 20 20 20 20 19 19 19 19 19 19 19 19 19 18 18 18 18 18 18 18 18 18 18 18 18 18 18 17 17 17 17 17 17 16 17 17 17 17 17 17
20 19 19 20 20 20 20 19 19 19 19 19 19 19 19 18 18 18 18 18 18 18 18 18 18 18 18 18 18 17 17 17 17 17 17 17 17 17 17 17 17 17 17
20 19 19 20 20 20 20 19 19 19 19 19 19 19 18 18 18 18 18 18 18 18 18 18 18 18 18 18 17 17 17 17 17 17 17 17 17 17 17 17 17 17 17
20 19 19 20 20 20 19 19 19 19 19 19 19 19 18 18 18 18 18 18 18 18 18 17 18 18 17 17 17 17 17 17 17 17 17 16 17 17 17 17 17 17 17
20 20 19 20 19 19 19 19 19 19 19 19 18 18 18 18 18 18 18 18 18 18 18 17 18 17 17 17 17 17 17 17 17 17 17 17 17 17 17 17 17 17 17
20 19 18 19 19 19 19 19 19 19 19 18 18 18 18 18 18 18 18 18 18 18 18 18 17 17 17 17 17 17 17 17 17 17 17 16 17 17 17 17 17 17 17
20 19 18 18 18 18 18 19 19 19 19 18 18 18 18 18 18 18 18 18 18 18 18 18 17 17 17 17 17 17 17 17 17 17 17 17 17 17 17 17 17 17 17
19 19 19 19 18 18 18 18 18 18 18 18 18 18 18 17 17 17 17 18 18 18 18 18 17 17 17 17 17 17 17 17 17 17 17 17 17 17 17 17 17 16 16
19 19 19 18 18 18 18 18 18 18 18 18 17 17 17 17 17 17 18 18 18 18 18 18 17 17 17 17 17 17 17 17 17 17 16 17 17 17 17 17 17 16 16
19 18 18 18 18 18 18 18 18 18 18 17 17 17 17 17 17 17 17 17 17 17 17 17 17 17 17 17 17 17 17 17 17 17 17 17 17 17 17 16 16 16 16
18 18 18 18 18 18 18 18 18 18 17 17 17 17 17 17 17 17 17 17 17 17 17 17 17 17 17 16 17 17 17 17 17 17 17 17 17 17 17 16 16 16 16
18 18 18 18 18 18 18 18 18 18 18 17 17 17 17 17 17 17 17 17 17 17 17 17 17 17 17 16 17 17 17 17 17 17 17 17 17 17 16 16 16 16 16
18 18 18 18 18 18 18 18 18 18 18 18 17 17 17 17 17 17 17 17 17 17 17 17 17 17 17 17 17 17 17 17 16 16 16 17 17 17 17 16 16 16 16
18 18 18 18 18 18 18 18 18 18 18 18 17 17 18 17 17 17 17 17 17 17 17 17 17 17 17 17 17 17 17 17 17 16 16 16 17 17 17 17 16 16 16
18 18 18 18 18 18 18 18 18 18 17 17 17 17 17 17 17 17 17 17 17 17 17 17 17 17 17 17 17 17 17 17 16 16 16 16 16 16 16 17 17 16 16
18 18 18 18 18 18 18 18 18 17 17 17 17 17 17 17 17 17 17 17 17 17 17 17 17 17 17 17 17 17 17 17 16 17 16 16 16 16 16 17 17 17 16
18 18 18 18 18 18 17 17 17 17 17 17 17 17 17 17 17 17 17 17 17 17 17 17 17 17 17 17 18 17 17 17 17 17 17 17 16 16 16 16 16 16 16
18 18 18 18 17 17 17 17 17 17 17 17 17 17 17 17 17 17 17 17 17 17 17 17 17 17 17 17 17 17 17 17 17 17 17 17 17 16 16 16 16 16 16
18 18 18 18 17 17 17 17 17 17 17 17 17 17 17 17 17 17 17 17 17 17 17 17 17 17 17 17 17 18 18 18 17 18 17 17 17 17 16 16 16 16 16
18 18 18 18 17 17 17 17 17 17 17 17 17 17 17 17 17 17 17 17 17 17 17 17 17 17 17 17 17 18 19 19 19 18 17 17 17 17 17 17 16 16 16
18 18 18 18 17 17 17 17 17 17 17 17 17 17 17 17 17 17 17 17 17 17 17 17 17 17 17 17 17 17 18 18 19 19 18 18 17 17 17 17 17 17 16
18 18 18 17 17 17 17 17 17 17 17 17 17 17 17 17 17 17 17 17 17 17 17 17 17 17 17 17 18 18 17 18 18 19 19 18 18 18 17 17 17 17 17
18 18 17 17 17 17 17 17 17 17 17 17 17 17 17 17 17 17 17 17 17 17 16 16 17 17 17 17 17 18 18 18 19 19 19 18 18 18 17 17 17 17 17
Wind_Speed
15 19 20 18 17 17 18 18 18 18 18 17 16 15 14 13 12 11 10 9 9 9 10 10 10 10 11 11 12 12 13 13 14 15 16 16 16 16 16 16 16 17 17
19 21 21 19 18 18 18 18 18 18 18 17 16 15 14 13 12 11 10 10 10 10 10 10 11 11 11 12 13 13 13 13 14 15 16 16 16 15 14 12 13 17 17
21 22 22 19 19 19 18 18 18 18 17 17 16 15 13 12 11 11 10 11 11 11 11 11 11 12 12 13 13 13 14 13 13 14 14 14 15 14 13 15 17 17 16
21 22 21 21 20 19 19 18 18 18 17 16 15 14 13 12 11 11 11 11 11 11 11 11 12 12 13 13 13 13 14 14 13 12 11 12 14 14 14 15 16 15 15
20 21 22 22 21 20 19 18 18 17 16 15 14 13 12 12 11 11 11 11 11 11 11 11 12 12 13 13 13 13 14 13 10 7 11 11 13 14 14 15 15 15 15
20 21 23 22 21 20 19 18 17 17 16 15 14 13 12 12 11 11 11 11 11 11 11 12 12 12 13 12 12 13 13 12 10 10 10 11 13 13 14 14 14 14 14
20 20 23 22 21 20 19 18 17 16 15 14 13 12 12 11 11 11 11 11 11 11 11 11 12 12 12 12 12 12 11 7 7 10 9 10 13 13 13 13 14 13 13
19 19 22 21 20 19 18 17 16 15 15 14 13 12 12 11 11 11 11 11 11 11 11 11 11 11 11 11 11 11 10 6 9 9 9 11 14 12 12 13 13 13 12
17 18 20 20 19 18 17 17 16 15 14 13 12 12 12 11 11 11 11 10 10 10 11 11 11 10 10 10 11 10 8 2 7 7 9 10 13 12 12 12 12 12 12
16 16 17 18 18 18 17 16 15 15 14 13 12 12 12 12 11 11 11 10 10 10 10 10 10 9 9 10 11 10 8 6 7 8 8 11 12 11 11 11 11 11 11
15 14 15 16 16 16 16 17 16 14 13 13 12 12 12 11 11 10 11 10 9 10 10 10 9 9 9 10 11 10 9 5 7 6 8 13 11 11 11 11 10 10 11
17 16 13 14 14 14 13 15 13 13 13 12 11 12 9 8 7 9 12 9 9 9 9 9 9 9 8 9 11 10 5 5 6 6 9 12 10 10 10 10 10 10 10
17 16 15 14 13 13 10 12 10 9 10 10 10 9 8 7 7 8 8 9 9 10 9 10 9 6 5 5 5 6 5 5 5 6 10 10 9 9 9 9 9 10 10
17 17 15 14 13 12 11 10 10 9 9 9 10 9 8 6 5 6 5 7 7 6 5 6 5 4 4 5 4 5 5 4 5 5 10 10 9 9 9 9 9 9 9
16 16 15 13 13 11 9 8 9 8 8 9 9 8 7 6 5 6 5 4 5 5 6 5 4 5 5 5 4 5 5 3 4 5 9 10 9 8 8 9 9 9 9
16 16 15 14 13 12 10 8 8 9 8 9 9 9 8 6 5 5 5 5 4 4 4 4 5 5 4 4 4 4 5 5 5 5 8 11 10 9 8 9 9 10 9
15 15 15 14 13 13 12 10 9 8 9 8 8 9 8 7 6 5 4 5 5 5 4 4 4 4 4 5 4 4 4 4 5 5 6 8 11 11 10 9 9 10 10
15 15 15 13 14 13 11 10 8 9 8 7 8 9 9 7 7 6 5 5 5 5 5 4 4 4 4 4 4 3 4 4 5 6 6 6 7 9 12 11 10 10 10
15 15 15 13 13 13 11 9 8 8 8 8 8 8 9 9 8 7 5 4 6 5 5 5 4 4 5 4 4 4 4 4 5 6 5 6 6 6 8 13 12 11 11
14 14 14 14 13 12 11 9 7 8 8 8 8 8 8 9 8 7 6 6 6 5 4 3 3 3 3 4 4 4 4 4 4 5 6 6 6 7 7 8 10 12 13
13 14 14 14 13 12 10 10 9 9 8 8 7 8 9 9 8 7 6 6 5 5 5 5 4 6 5 4 3 3 4 5 5 5 5 5 6 7 7 7 7 7 10
14 14 14 14 14 13 10 9 8 7 7 7 6 7 9 9 9 9 7 6 6 4 5 5 5 4 4 5 4 3 4 5 5 5 5 6 5 6 7 8 7 7 7
13 14 14 15 14 13 12 9 8 7 6 7 7 7 9 9 9 8 8 7 6 7 6 6 6 6 5 5 4 3 3 3 5 5 5 5 5 5 6 6 7 7 8
12 13 13 14 14 13 12 11 12 11 10 9 8 7 8 9 9 9 8 7 6 6 5 7 7 6 5 5 4 3 3 2 2 3 5 6 6 6 5 5 5 6 7
11 11 11 12 13 13 14 13 12 12 10 8 8 8 8 8 8 9 8 7 7 6 6 6 5 6 6 5 5 5 4 3 4 3 3 4 5 5 5 5 4 4 5
10 10 11 12 12 13 14 13 13 13 11 10 10 9 9 7 7 9 9 8 8 6 6 6 6 7 5 4 4 4 5 4 4 3 3 4 4 4 3 2 3 3 4
Wind_Direction
155 150 147 149 145 141 137 135 135 136 138 138 136 134 132 129 125 122 118 115 111 108 109 109 111 117 119 120 119 117 116 116 113 113 112 112 113 115 118 124 126 114 114
149 147 148 148 146 142 139 136 135 135 136 137 136 134 131 129 125 122 119 114 111 108 107 108 111 115 118 119 118 117 118 119 118 118 119 116 114 115 117 115 108 115 119
147 146 151 149 146 144 140 138 137 137 137 137 137 134 132 128 125 122 118 113 110 108 107 108 111 115 116 117 116 118 119 119 119 124 132 124 118 115 112 105 108 119 119
148 149 154 149 148 145 143 141 140 140 139 138 137 134 132 128 124 121 117 113 111 111 110 109 112 114 116 116 116 117 119 119 125 147 134 121 121 117 115 115 117 118 119
149 150 148 152 150 147 146 144 143 143 141 141 139 137 134 130 126 122 118 115 112 112 111 111 112 115 117 116 116 118 120 123 142 154 112 112 114 121 120 120 119 118 119
150 152 149 155 152 150 148 148 147 146 144 143 141 138 136 132 127 122 118 117 112 112 112 113 115 116 116 116 117 120 124 138 165 118 116 119 118 124 125 124 124 122 121
155 153 151 156 153 152 151 151 150 147 146 145 143 140 137 132 126 123 121 117 113 113 114 114 116 118 119 119 119 122 128 156 125 116 121 116 116 123 124 125 125 124 124
156 152 149 156 155 155 154 153 152 150 149 147 145 142 137 131 128 126 122 118 116 115 116 116 117 119 120 121 122 125 137 175 126 123 120 116 118 125 124 125 126 128 128
158 152 152 158 158 157 156 156 155 152 151 149 145 141 137 131 128 126 123 120 118 117 117 119 119 120 123 126 126 128 132 179 131 125 122 118 125 129 128 129 133 132 132
162 157 157 162 160 161 161 159 157 154 153 148 144 143 139 136 132 132 136 124 124 122 121 123 123 124 127 130 134 136 146 191 130 134 124 122 133 136 137 136 138 138 137
167 164 164 162 162 166 163 158 161 158 156 155 153 149 159 157 145 152 123 127 132 129 124 125 128 131 138 136 140 150 171 164 127 126 111 123 143 145 143 141 141 141 140
172 170 167 163 165 168 164 160 167 167 164 173 159 161 164 146 145 131 123 137 137 134 133 130 136 156 179 147 149 173 165 140 138 133 118 134 149 150 150 149 148 146 145
173 171 171 169 171 170 166 166 168 167 164 169 160 161 152 152 152 146 148 152 153 159 153 145 169 165 149 126 146 154 140 142 137 136 129 147 158 160 159 158 157 156 152
173 172 174 173 174 176 172 167 169 168 168 169 160 169 162 163 163 151 158 156 165 162 151 159 157 146 135 142 146 138 151 160 138 129 133 155 166 170 167 168 168 165 162
175 174 175 176 175 175 172 176 174 172 173 169 163 170 174 171 171 160 159 166 177 156 163 170 160 152 158 162 168 157 162 147 139 149 139 158 171 174 176 176 174 171 169
177 177 175 177 177 176 177 179 177 178 176 173 174 172 183 179 168 173 173 175 175 175 168 168 159 168 176 160 166 151 166 159 156 167 151 160 172 181 186 185 181 178 179
178 178 178 178 178 180 181 181 179 184 179 180 176 176 185 188 172 185 183 184 178 170 163 181 170 177 175 168 161 164 168 172 162 177 171 168 171 181 191 193 189 190 190
178 179 180 181 181 183 184 186 181 186 183 186 184 182 189 191 185 192 192 190 177 184 184 175 193 182 177 180 169 180 168 165 168 181 183 182 176 178 183 192 197 199 200
180 179 180 184 183 184 183 186 187 185 190 193 194 192 188 195 192 199 199 178 191 195 194 200 181 202 184 183 175 179 186 172 173 188 184 184 184 192 180 178 195 205 208
182 181 183 186 184 183 180 182 188 187 190 197 198 196 195 198 196 200 196 185 201 195 198 205 180 210 203 194 198 165 188 182 187 185 198 185 185 199 201 185 191 201 208
183 183 186 187 183 182 182 185 188 189 192 195 199 196 200 204 195 202 207 180 205 200 204 201 197 189 200 184 190 185 192 195 187 190 208 197 191 202 200 196 211 202 194
187 188 190 190 186 186 186 188 190 189 194 198 196 191 203 202 199 198 207 202 199 199 202 209 209 212 193 186 211 204 194 185 198 199 194 202 204 199 200 200 203 209 228
190 190 191 190 187 188 185 183 181 180 191 195 197 194 199 201 202 207 203 213 201 210 198 206 207 213 206 194 215 236 233 202 170 176 198 196 196 204 212 201 206 203 219
192 189 188 189 188 187 187 189 188 194 198 200 197 192 193 199 202 205 208 208 209 214 197 209 205 212 213 207 195 238 285 345 237 175 187 183 187 200 212 216 205 201 216
188 187 184 184 186 190 195 195 196 202 203 196 195 190 198 197 202 206 206 204 205 212 208 218 196 220 212 219 207 200 202 208 244 235 181 178 177 184 189 204 211 210 210
184 182 181 181 186 190 194 197 201 203 202 199 197 192 200 197 198 202 203 203 207 208 202 210 208 207 226 227 239 219 213 214 226 227 208 203 183 168 173 191 210 204 216
Height
1523 1525 1526 1529 1532 1534 1537 1539 1541 1542 1544 1546 1547 1548 1550 1551 1552 1553 1554 1555 1555 1556 1557 1558 1558 1559 1560 1561 1562 1563 1564 1564 1565 1566 1567 1568 1569 1570 1571 1571 1573 1574 1574
1522 1524 1526 1530 1533 1536 1538 1540 1542 1544 1546 1547 1549 1550 1551 1552 1553 1554 1555 1556 1557 1558 1558 1559 1560 1561 1562 1562 1564 1565 1565 1566 1567 1568 1569 1570 1571 1572 1573 1574 1576 1576 1577
1522 1524 1527 1531 1534 1537 1539 1541 1543 1545 1547 1549 1550 1552 1553 1554 1555 1556 1557 1558 1558 1559 1560 1561 1561 1562 1563 1564 1565 1566 1567 1568 1569 1571 1572 1574 1574 1575 1576 1576 1577 1578 1579
1523 1526 1528 1531 1535 1538 1540 1543 1545 1547 1548 1550 1552 1553 1554 1555 1557 1557 1558 1559 1560 1561 1561 1562 1563 1564 1565 1566 1567 1568 1569 1570 1572 1573 1576 1576 1577 1577 1578 1579 1580 1581 1582
1525 1527 1529 1532 1536 1539 1541 1544 1546 1548 1550 1551 1553 1554 1556 1557 1558 1559 1560 1561 1561 1562 1563 1564 1564 1565 1566 1568 1569 1570 1571 1572 1574 1576 1578 1578 1579 1579 1580 1581 1582 1583 1584
1526 1529 1530 1534 1537 1540 1542 1545 1547 1549 1551 1553 1554 1556 1557 1558 1559 1560 1561 1562 1563 1564 1565 1566 1566 1567 1568 1570 1571 1572 1573 1574 1577 1579 1580 1580 1581 1581 1582 1583 1584 1585 1586
1527 1531 1532 1535 1538 1541 1544 1546 1548 1550 1552 1554 1555 1557 1558 1560 1561 1562 1563 1564 1565 1566 1566 1567 1568 1569 1570 1572 1573 1574 1575 1576 1580 1581 1582 1582 1582 1583 1584 1585 1586 1587 1588
1529 1532 1532 1536 1539 1542 1545 1547 1549 1551 1553 1555 1557 1558 1560 1561 1562 1563 1564 1565 1566 1567 1568 1569 1570 1571 1572 1573 1575 1576 1577 1578 1581 1583 1584 1584 1583 1584 1586 1587 1588 1589 1590
1530 1533 1534 1537 1540 1543 1546 1548 1550 1552 1554 1556 1558 1559 1561 1562 1563 1564 1565 1567 1568 1569 1570 1571 1572 1573 1574 1575 1576 1578 1578 1579 1583 1584 1585 1585 1585 1586 1587 1588 1589 1590 1591
1530 1533 1534 1538 1541 1543 1546 1549 1551 1553 1555 1557 1559 1560 1562 1563 1564 1566 1567 1568 1569 1570 1572 1573 1574 1575 1576 1577 1578 1579 1580 1581 1585 1585 1586 1586 1586 1587 1588 1589 1591 1592 1593
1529 1532 1535 1539 1541 1544 1548 1549 1552 1554 1556 1558 1560 1561 1563 1565 1567 1567 1568 1569 1570 1572 1573 1574 1575 1577 1578 1579 1579 1580 1582 1584 1585 1587 1587 1586 1587 1589 1590 1591 1592 1593 1594
1527 1531 1534 1538 1541 1545 1548 1550 1552 1555 1557 1559 1561 1562 1564 1566 1568 1569 1568 1570 1571 1572 1574 1575 1577 1578 1580 1581 1581 1582 1584 1585 1586 1587 1587 1587 1588 1589 1591 1592 1593 1594 1595
1526 1529 1533 1537 1540 1544 1547 1550 1553 1555 1557 1560 1561 1563 1565 1566 1568 1570 1571 1571 1572 1574 1576 1576 1578 1581 1582 1582 1583 1584 1585 1587 1587 1588 1588 1588 1589 1590 1591 1593 1594 1595 1596
1524 1527 1532 1536 1539 1542 1546 1550 1552 1555 1557 1560 1561 1563 1565 1567 1569 1570 1571 1573 1574 1575 1576 1578 1579 1581 1581 1582 1584 1584 1585 1587 1588 1588 1588 1588 1589 1591 1592 1593 1594 1595 1596
1523 1526 1530 1534 1537 1541 1544 1548 1551 1554 1557 1559 1560 1562 1564 1567 1569 1570 1571 1572 1575 1576 1577 1578 1579 1580 1581 1582 1584 1585 1586 1587 1588 1589 1589 1589 1590 1591 1592 1593 1594 1595 1597
1521 1525 1529 1532 1536 1539 1543 1546 1550 1553 1555 1559 1561 1562 1564 1567 1568 1570 1571 1572 1574 1576 1578 1579 1579 1580 1582 1583 1584 1585 1586 1587 1587 1588 1589 1589 1590 1591 1592 1593 1594 1595 1596
1520 1524 1527 1531 1534 1538 1542 1545 1549 1552 1555 1558 1560 1561 1563 1566 1567 1569 1572 1573 1574 1575 1576 1578 1579 1581 1581 1582 1583 1584 1586 1586 1587 1588 1589 1590 1590 1590 1591 1593 1594 1595 1596
1519 1522 1526 1530 1533 1536 1540 1543 1547 1551 1554 1557 1559 1561 1563 1565 1566 1568 1571 1573 1574 1575 1577 1578 1579 1580 1581 1582 1583 1584 1585 1585 1586 1587 1589 1589 1591 1591 1591 1592 1593 1594 1595
1517 1520 1523 1527 1530 1534 1538 1542 1546 1549 1552 1555 1558 1560 1562 1564 1566 1568 1570 1572 1573 1575 1576 1578 1579 1580 1581 1582 1583 1583 1585 1585 1586 1587 1588 1589 1590 1591 1592 1591 1592 1593 1594
1516 1519 1522 1525 1528 1532 1536 1540 1544 1547 1550 1553 1556 1558 1561 1563 1565 1567 1569 1570 1573 1574 1575 1576 1577 1578 1580 1581 1582 1583 1584 1585 1585 1586 1587 1588 1589 1590 1591 1592 1592 1592 1593
1514 1517 1519 1522 1526 1529 1533 1537 1541 1545 1548 1551 1554 1557 1559 1562 1564 1566 1569 1569 1571 1573 1574 1576 1577 1577 1579 1580 1581 1582 1583 1584 1585 1585 1586 1587 1588 1589 1590 1590 1591 1592 1592
1511 1514 1517 1520 1523 1527 1530 1535 1539 1543 1546 1549 1552 1554 1557 1560 1562 1565 1566 1568 1570 1571 1572 1574 1575 1577 1578 1579 1580 1581 1582 1584 1583 1584 1585 1585 1586 1587 1588 1589 1590 1590 1591
1509 1512 1515 1517 1520 1524 1528 1533 1537 1540 1543 1547 1549 1552 1555 1557 1560 1562 1564 1567 1568 1570 1571 1572 1573 1575 1577 1578 1579 1580 1580 1580 1581 1583 1583 1584 1585 1586 1587 1588 1588 1589 1589
1507 1510 1512 1515 1518 1521 1526 1530 1533 1536 1540 1543 1547 1550 1552 1555 1558 1560 1562 1564 1566 1568 1569 1571 1572 1574 1575 1576 1577 1578 1580 1579 1580 1581 1582 1583 1583 1584 1585 1586 1587 1587 1587
1505 1508 1510 1513 1516 1519 1523 1527 1530 1534 1538 1541 1545 1547 1550 1553 1555 1558 1560 1562 1563 1566 1567 1569 1570 1572 1574 1575 1576 1577 1578 1579 1579 1580 1580 1582 1582 1583 1584 1584 1585 1586 1586
1504 1506 1508 1511 1514 1517 1520 1524 1527 1531 1534 1538 1541 1544 1548 1551 1553 1555 1557 1559 1561 1564 1565 1567 1568 1570 1571 1573 1574 1576 1577 1578 1578 1579 1579 1580 1581 1582 1582 1583 1584 1584 1584